AirNav   Air Wisconsin pilot careers
 
 609 users online  

00IN St Mary Medical Center Heliport
Hobart, Indiana, USA

GOING TO HOBART?


FAA INFORMATION EFFECTIVE 07 DECEMBER 2017

Location

FAA Identifier: 00IN
Lat/Long: 41-30-41.0000N / 087-15-38.0000W
41-30.683333N / 087-15.633333W
41.5113889 / -87.2605556
(estimated)
Elevation: 634 ft. / 193 m (estimated)
Variation: 02W (1995)
From city: 2 miles SW of HOBART, IN
Time zone: UTC -6 (UTC -5 during Daylight Saving Time)
Zip code: 46342

Heliport Operations

Heliport use: Private use. Permission required prior to landing
Activation date: 03/2000
Control tower: no
ARTCC: CHICAGO CENTER
FSS: TERRE HAUTE FLIGHT SERVICE STATION
Attendance: UNATNDD
Wind indicator: lighted
Segmented circle: no
Lights: FOR PERIMETER LGTS CALL 219-942-0551.

Heliport Communications

WX AWOS-3PT at GYY (9 nm NW): 134.575 (219-944-0010)
WX ASOS at VPZ (12 nm E): 125.875 (219-531-1770)
WX AWOS-3 at IGQ (12 nm W): 119.275 (708-895-9526)

Nearby radio navigation aids

VOR radial/distance  VOR name  Freq  Var
CGTr088/14.0CHICAGO HEIGHTS VORTAC114.2002E
EONr057/27.9PEOTONE VORTAC113.2002E
OXIr292/29.8KNOX VOR/DME115.6000E
IKKr045/37.3KANKAKEE VOR/DME111.6000E

 
NDB name  Hdg/Dist  Freq  Var  ID
LA PORTE275/22.035603WIUL .. ..- .-..

Heliport Services

Runway Information

Helipad H1

Dimensions: 40 x 40 ft. / 12 x 12 m
Surface: mats
Runway edge lights: PERI
Operational restrictions: ROOFTOP HELIPAD.
Latitude: 41-30.683333N
Longitude: 087-15.633333W
Elevation: 634.0 ft.
Traffic pattern: leftleft

Heliport Ownership and Management from official FAA records

Ownership: Privately-owned
Owner: ST MARYS MEDICAL CENTER
1500 S LAKE PARK AVE
HOBART, IN 46342
Phone 219-942-0551
Manager: KEN VANDERHYE
ST MARY MEDICAL CENTER, 1500 S LAKE PARK AVE
HOBART, IN 46342
Phone 219-942-0551

Instrument Procedures

There are no published instrument procedures at 00IN.

Some nearby airports with instrument procedures:

3HO - Hobart Sky Ranch Airport (3 nm N)
05C - Griffith-Merrillville Airport (6 nm W)
KGYY - Gary/Chicago International Airport (9 nm NW)
KVPZ - Porter County Regional Airport (12 nm E)
KIGQ - Lansing Municipal Airport (12 nm W)
 
Loc | Ops | Rwys | IFR | FBO | Links
Com | Nav | Svcs | Stats | Notes


 
Area around 00IN (St Mary Medical Center Heliport)
 
Road maps at: MapQuest Bing Google
 
Aerial photo
No photo
 
Sectional chart

 
Airport distance calculator
Flying to St Mary Medical Center Heliport? Find the distance to fly.

From to 00IN

Sunrise and sunset
Times for 11-Dec-2017
 Local
(UTC-6)
 Zulu
(UTC)
Morning civil twilight06:3512:35
Sunrise07:0613:06
Sunset16:1822:18
Evening civil twilight16:4922:49

Current date and time
Zulu (UTC)  11-Dec-2017 12:08:09
Local (UTC-6)  11-Dec-2017 06:08:09
 
METAR
KGYY 
9nm NW 
111145Z 20004KT 10SM SCT060 OVC090 M02/M07 A3002
KVPZ 
12nm E 
111156Z AUTO 17004KT 8SM OVC075 M03/M07 A3002 RMK AO2 SLP174 T10281067 11011 21050 56006 $
KIGQ 
12nm W 
111155Z AUTO 18004KT 10SM OVC070 M03/M05 A3001 RMK AO2 T10351051 11022 21072
TAF
KGYY 
9nm NW 
111135Z 1112/1212 17006KT P6SM BKN060 OVC080 FM111800 18008KT P6SM VCSH BKN050 BKN100 FM112200 VRB04KT P6SM SCT020 OVC050 FM120200 33020G32KT P6SM -SHSN OVC025 TEMPO 1202/1204 5SM -SHSN OVC015
NOTAMs
Click for the latest NOTAMs
NOTAMs are issued by the DoD/FAA and will open in a separate window not controlled by AirNav.

 

 
 

Would you like to see your business listed on this page?

 If your business provides an interesting product or service to pilots, flight crews, aircraft, or users of the St Mary Medical Center Heliport, you should consider listing it here.  To start the listing process, click on the button below
 
Add a business
 

Other Pages about St Mary Medical Center Heliport

Update a link
 
Copyright © AirNav, LLC. All rights reserved. Privacy Policy  Contact